Location: Fairmont
(43.6520°N, 94.4610°W)
Time: 17:54:22
(UTC-05:00)

Daily predictions for brighter satellites

Satellite Brightness Start Highest point End
(mag) Time Altitude Azimuth Time Altitude Azimuth Time Altitude Azimuth
SL-24 R/B - RUBIN 2 3.7 20:33:23 10° NNW 20:37:43 56° NE 20:42:00 10° SE
Cosmos 1437 2.6 20:34:50 10° S 20:38:00 80° E 20:41:13 10° NNE
Thor Agena Rocket 3.6 20:39:36 10° NNE 20:44:47 60° ESE 20:49:59 10° S
Cosmos 2221 3.1 20:41:26 10° SSW 20:45:40 63° W 20:49:54 10° N
Cosmos 44 Rocket 3.2 20:41:25 10° SSW 20:46:09 80° ESE 20:51:04 10° NE
Cosmos 1346 Rocket 3.9 20:42:16 10° SSW 20:46:15 52° WNW 20:50:16 10° N
BREEZE-M DEB (TANK) 3.7 20:43:27 10° WNW 20:48:31 38° N 20:50:49 10° ENE
Cosmos 2154 Rocket 4.1 20:43:30 10° S 20:49:38 59° E 20:55:44 10° NNE
Cosmos 1300 3.5 20:45:55 10° SSW 20:49:40 56° W 20:53:27 10° N
Cosmos 2184 Rocket 4.2 20:47:12 10° SSW 20:53:22 76° W 20:59:33 10° N
OE (NEXTSAT) 4.5 20:50:04 10° SW 20:53:34 57° SSE 20:57:04 10° ENE
Cosmos 1805 Rocket 3.6 20:49:48 10° N 20:54:11 83° W 20:58:30 10° S
Meteor 2-2 Rocket 4.4 20:50:15 10° S 20:55:56 58° E 21:01:46 10° NNE
Resurs 01 Rocket 1.7 20:54:02 10° SSE 20:58:26 65° ENE 21:02:50 10° N
Cosmos 2360 Rocket 3.1 20:53:00 10° SW 20:58:30 53° WNW 21:04:01 10° NNE
BREEZE-M DEB (TANK) 3.8 20:50:26 10° WSW 21:01:10 56° NNW 21:04:24 10° ENE
CZ-2D R/B 4.4 20:58:40 10° S 21:02:18 44° W 21:05:59 10° NNW
Cosmos 1328 Rocket 4.1 20:58:36 10° SSE 21:02:41 39° E 21:06:50 10° NNE
Cosmos 2333 Rocket 2.5 20:59:15 10° S 21:04:37 45° ESE 21:09:58 10° NE
NOSS 2-1 (C) 3.1 21:03:13 10° SSW 21:06:49 81° SE 21:10:50 10° NE
NOSS 2-1 (D) 3.1 21:04:12 10° SSW 21:07:48 84° SE 21:11:50 10° NE
Spot 2 Rocket 3.5 21:04:24 10° SSE 21:09:27 66° ENE 21:14:31 10° N
COSMOS 2428 2.7 21:04:04 10° SSW 21:09:48 83° ESE 21:15:34 10° NNE
Cosmos 2341 Rocket 4.1 21:03:42 10° S 21:09:54 57° E 21:16:05 10° NNE
Cosmos 1470 Rocket 4.1 21:07:35 10° N 21:11:44 39° ENE 21:14:51 16° SE
ATLAS 2AS CENTAUR R/B 3.1 21:04:13 10° NNW 21:12:12 66° NE 21:18:17 16° SE
Cosmos 2333 4.2 21:07:24 10° SSW 21:13:04 89° WNW 21:18:44 10° NNE
Cosmos 1455 2.3 21:10:12 10° S 21:13:55 55° E 21:17:43 10° NNE
Cosmos 1844 Rocket 3.0 21:11:01 10° NNW 21:16:41 70° WSW 21:22:17 10° SSE
Cosmos 1844 3.7 21:11:18 10° NNW 21:17:02 88° WSW 21:22:30 11° SSE
SJ-11-01 4.2 21:12:24 10° SSE 21:17:04 84° ENE 21:21:46 10° NNW
Cosmos 962 Rocket 4.4 21:12:13 10° S 21:18:16 68° E 21:24:24 10° NNE
Cosmos 1892 2.8 21:14:30 10° N 21:18:24 80° W 21:22:17 10° S
ERS-2 3.7 21:16:40 10° SSW 21:20:03 35° W 21:23:27 10° NNW
Cosmos 1408 3.3 21:20:26 10° N 21:23:49 35° ENE 21:25:16 25° ESE
Cosmos 2237 Rocket 2.6 21:21:11 10° S 21:26:20 39° ESE 21:31:31 10° NE
Cosmos 2219 Rocket 2.1 21:21:34 10° SSW 21:27:13 80° ESE 21:32:54 10° NNE
Lacrosse 5 4.2 21:24:22 10° NW 21:27:47 18° N 21:31:12 10° NE
ATLAS CENTAUR R/B 1.3 21:25:29 10° SSW 21:28:58 46° ESE 21:32:39 10° NE
USA 186 3.6 21:27:51 10° SSW 21:29:35 19° W 21:31:21 10° NW
Cosmos 1295 Rocket 4.5 21:23:22 10° S 21:29:41 78° E 21:36:01 10° N
SPOT 5 4.4 21:30:50 16° E 21:32:06 18° ENE 21:35:10 10° NNE
Cosmos 2366 rocket 4.4 21:27:19 14° SSE 21:32:15 42° E 21:38:04 10° NNE
Cosmos 2278 Rocket 2.4 21:28:24 10° NNW 21:34:01 58° ENE 21:37:23 24° SE
Genesis I 3.4 21:30:00 10° NNW 21:34:04 65° NE 21:35:57 30° SE
Cosmos 1666 Rocket 4.5 21:30:08 10° NNW 21:34:28 50° W 21:38:47 10° SSW
NOSS 0 Rocket 3.9 21:30:07 10° S 21:36:08 59° ESE 21:42:14 10° NNE
MetOp-A 4.4 21:33:30 22° SE 21:36:40 49° ENE 21:41:49 10° N
NOSS 2-1 (E) 4.0 21:34:38 10° SW 21:38:13 54° NW 21:42:21 10° NNE
NOAA 11 4.3 21:35:18 11° S 21:40:36 80° WSW 21:46:09 10° NNW
Cosmos 1933 Rocket 3.5 21:36:13 10° N 21:40:37 67° E 21:42:57 26° SSE
YAOGAN 6 4.5 21:37:52 10° SSW 21:41:01 29° W 21:44:14 10° NW
H-2A R/B 2.5 21:39:07 26° ESE 21:41:22 40° ENE 21:46:02 10° N
SL-8 Rocket 4.0 21:36:11 10° S 21:42:25 67° E 21:48:39 10° NNE
Cosmos 407 Rocket 4.4 21:41:43 10° N 21:46:19 32° ENE 21:48:01 26° E
NOSS 3-3 (A) 4.1 21:44:06 10° SW 21:50:09 82° NW 21:56:52 10° NE
NOSS 3-3 (C) 4.0 21:44:12 10° SW 21:50:15 82° NW 21:56:58 10° NE
ERS-1 Rocket 3.3 21:50:18 32° ESE 21:52:12 47° ENE 21:56:59 10° N
Cosmos 1371 Rocket 4.3 21:50:10 23° SSE 21:53:09 46° ESE 21:58:16 10° NNE
Cosmos 220 Rocket 4.4 21:49:16 10° NNW 21:53:34 61° WSW 21:55:55 25° S
Cosmos 1151 Rocket 2.9 21:50:12 13° S 21:53:57 87° W 21:58:16 10° N
USA 267 3.6 21:51:08 10° ENE 21:57:11 39° SE 22:03:11 10° SSW
Cosmos 1825 2.1 21:58:25 10° N 22:02:14 83° W 22:03:17 46° S
Cosmos 1869 Rocket 4.2 21:58:28 10° N 22:02:31 35° ENE 22:02:44 35° E
Cosmos 2344 4.2 22:10:53 31° ESE 22:11:17 31° ESE 22:18:07 10° NE
Cosmos 1869 3.2 22:10:12 46° S 22:11:22 89° E 22:15:25 10° N
Cosmos 2098 Rocket 3.0 22:11:35 35° S 22:13:34 82° E 22:17:32 10° N
Cosmos 2228 Rocket 3.9 22:09:44 10° SSW 22:14:00 51° WNW 22:18:18 10° N
Cosmos 864 Rocket 4.3 22:10:20 19° S 22:14:52 84° E 22:21:02 10° N
Cosmos 2056 Rocket 3.6 22:13:06 39° SSE 22:14:52 57° ESE 22:20:10 10° NNE
SL-16 R/B 2.6 22:15:04 39° ESE 22:15:04 39° ESE 22:20:14 10° NE
Helios 1B rocket 3.9 22:12:12 10° NNE 22:14:22 24° ENE 22:14:22 24° ENE
SL-8 R/B 3.6 22:14:27 10° SW 22:19:10 63° SSE 22:19:41 58° ESE
Cosmos 405 3.3 22:15:48 10° N 22:18:45 55° NNE 22:18:45 55° NNE
Helios 1A 2.9 22:26:20 72° E 22:26:25 72° ENE 22:30:37 10° N
ARGOS 3.5 22:26:04 32° S 22:28:30 61° W 22:33:49 10° NNW
GEOS 3 Rocket 3.5 22:24:36 10° NE 22:30:00 81° SE 22:35:16 10° SW
Cosmos 1943 Rocket 4.3 22:27:51 10° NNE 22:30:16 13° NE 22:32:07 11° ENE
USA 234 4.2 22:27:52 21° E 22:31:45 41° NNE 22:37:46 10° NW
SL-08 RB Rocket 3.9 22:31:04 51° SSW 22:32:00 65° WSW 22:36:28 10° NNW
Cosmos 1624 Rocket 3.8 22:30:21 40° SSW 22:32:15 85° ESE 22:37:29 10° NNE
MetOp-B 4.5 22:33:15 36° SSW 22:35:18 60° W 22:40:37 10° NNW
Resurs 01 Rocket 4.4 22:33:22 10° WSW 22:35:20 13° W 22:37:20 10° WNW
Cosmos 1190 Rocket 3.9 22:30:32 10° NNW 22:35:51 87° ENE 22:36:40 65° SSE
CZ-2C R/B 4.3 22:39:39 25° ENE 22:39:39 25° ENE 22:43:06 10° N
Landsat 7 3.9 22:42:33 62° ENE 22:42:33 62° ENE 22:47:09 10° N
Cosmos 2297 3.6 22:38:24 10° NNW 22:44:07 81° ENE 22:44:55 66° SE
Cosmos 1140 Rocket 3.7 22:41:18 10° NNW 22:46:25 55° ENE 22:46:26 55° ENE
Cosmos 1727 Rocket 4.2 22:41:13 10° NNW 22:47:20 64° W 22:49:43 37° SSW
Cosmos 1441 Rocket 4.3 22:49:02 38° N 22:49:02 38° N 22:51:27 10° N
Cosmos 1000 Rocket 4.4 22:42:13 10° N 22:48:24 66° E 22:49:13 59° ESE
Cosmos 2333 Rocket 4.0 22:44:05 10° WSW 22:49:02 30° NW 22:54:00 10° N
Cosmos 1954 Rocket 4.1 22:44:33 10° NNW 22:49:44 60° ENE 22:49:44 60° ENE
Cosmos 1821 Rocket 4.0 22:53:04 60° ESE 22:53:38 63° E 22:59:52 10° NNE
Cosmos 2369 Rocket 3.6 22:49:55 10° N 22:54:32 24° NE 22:55:14 24° ENE
Cosmos 1862 4.0 22:50:41 10° NNW 22:54:07 54° NW 22:54:07 54° NW
Meteor 2-10 Rocket 4.3 22:52:18 25° SW 22:55:32 55° WNW 23:01:16 10° N
IGS 5A 4.3 22:57:56 44° NNE 22:57:56 44° NNE 23:00:57 10° N
DMSP B5D2-2 4.0 22:53:04 10° NNE 22:58:20 81° WNW 22:59:00 68° SW
Spot 1 4.3 22:58:41 85° NNW 22:58:41 85° NNW 23:03:23 10° NNW
Terra 2.2 23:00:47 56° NE 23:00:47 56° NE 23:04:51 10° N
ATLAS 2AS CENTAUR R/B 4.2 22:56:03 10° NW 23:02:38 31° WSW 23:05:44 23° SSW
ATLAS CENTAUR R/B 3.9 23:05:28 10° W 23:08:11 19° NW 23:11:02 10° N
Cosmos 2123 Rocket 4.2 23:02:33 10° N 23:08:46 55° ENE 23:08:49 55° E
SPOT 5 3.4 23:10:05 50° W 23:10:05 50° W 23:14:16 10° NNW
Cosmos 2237 Rocket 3.7 23:05:23 10° WSW 23:10:26 34° NW 23:15:32 10° N
SPOT 1/Viking Rocket 3.9 23:11:59 56° WSW 23:12:13 57° W 23:17:23 10° NNW
Lacrosse 5 3.5 23:07:57 10° NW 23:12:15 27° NNE 23:13:24 25° NE
Cosmos 405 Rocket 4.4 23:16:09 33° NW 23:16:09 33° NW 23:18:51 10° N
Cosmos 2278 Rocket 4.0 23:13:25 10° NW 23:17:38 22° W 23:19:15 19° WSW
CZ-2C R/B 4.0 23:13:51 10° NNE 23:16:47 28° NE 23:16:47 28° NE
H-2A R/B 3.6 23:19:44 23° WSW 23:20:55 25° W 23:25:02 10° NW
CZ-4C R/B 3.8 23:26:51 23° NE 23:26:51 23° NE 23:29:11 10° NE
Cosmos 1535 Rocket 4.4 23:24:12 85° SSE 23:24:24 88° E 23:30:49 10° N
ATLAS 5 CENTAUR R/B 3.4 23:25:07 10° NNW 23:30:25 35° NE 23:31:12 34° ENE
Cosmos 1241 Rocket 4.4 23:26:34 10° NNW 23:32:48 75° NE 23:32:48 75° NE
NOSS 3-4 (A) 4.1 23:26:35 10° NW 23:33:28 56° WSW 23:34:10 54° SW
NOSS 3-4 (C) 4.1 23:26:41 10° NW 23:33:34 56° WSW 23:34:16 54° SW
USA 267 3.5 23:33:56 10° NE 23:40:25 68° NW 23:46:54 10° WSW
BREEZE-M DEB (TANK) 4.1 23:17:57 10° WNW 23:43:24 79° SW 23:44:23 69° SSE
Cosmos 1605 Rocket 4.1 23:44:27 67° NE 23:44:27 67° NE 23:50:07 10° N
